CAPE
1257 1385 1763 2005 1915 1739 1586 1454 1659 1911 2036 2299 2432 2440 2388 2353 2374 2421 2535 2584 2583 2605 1736 1881 1807 1698 1503 1594 1995 1967 1900 1930 1989 2105 2070 2028 1751 1807 1762 1947 1714 1442 1911
1041 1621 1791 1981 1984 1940 1814 1631 1677 1981 2208 2219 2377 2437 2422 2449 2477 2564 2629 2624 2684 2536 1861 1841 1688 1498 1522 1630 1758 1940 1879 1756 1806 2053 2118 1849 1744 1835 1780 1733 1680 1626 1889
1332 1682 1881 1969 2014 2047 2056 1981 1966 2184 2399 2274 2186 2308 2444 2516 2540 2525 2522 2570 2636 2472 1939 1852 1809 1585 1632 1708 1651 1852 1860 1780 1773 1988 2092 1504 1479 1907 1754 1734 1802 1863 1768
1471 1643 1888 1966 1967 2023 2036 2039 2148 2403 2399 2353 2272 2290 2375 2457 2487 2462 2404 2348 2474 2528 2172 1942 1901 1745 1862 1551 1610 1723 1792 1746 1684 1711 1491 1584 1695 1989 1722 1630 1843 1907 1626
1623 1637 1815 2047 2050 2002 2008 2053 2174 2319 2240 2265 2299 2445 2549 2589 2601 2576 2416 2384 2575 2719 2485 2141 2109 2097 1658 1358 1454 1568 1587 1498 1472 1285 1290 1426 1523 1827 1686 1698 1710 1855 1889
1851 1928 1863 2006 2168 2158 2070 2079 2182 2177 2036 2033 2260 2419 2603 2716 2836 2677 2413 2521 2918 2982 2777 2656 2657 2003 1429 1244 1331 1484 1334 1172 1168 1021 1117 1349 1557 1970 1834 1943 1739 1666 1736
2276 2443 2294 2128 2078 2236 2253 2169 2125 2093 1941 1936 2119 2388 2498 2560 2578 2324 2198 2556 2878 3030 2866 2769 2495 1675 1367 1251 1320 1351 1325 1259 972 883 1025 1328 1475 1906 1911 1791 1777 1695 1688
2682 2550 2277 2207 2058 2141 2336 2249 2100 2077 1935 1913 1985 2173 2474 2513 2301 2082 2126 2410 2481 2680 2630 2511 1826 1523 1317 1300 1234 1236 1276 1151 1235 1010 986 1077 1252 1937 1863 1771 1656 1471 1394
2372 2403 2387 2230 2047 2039 2149 2292 2199 2133 2015 1916 1907 2012 2248 2239 2035 1898 2106 2236 2110 2283 2443 2068 1510 1315 1281 1283 1144 1169 1155 1079 1059 1168 993 968 1381 2066 1914 1786 1729 1625 1671
835 2258 2316 2201 2063 2083 2047 1962 2156 2194 2173 2016 1957 1977 2041 2113 1913 1779 1917 2127 2012 1977 2189 2004 1423 1207 1212 1209 1119 1071 1060 1061 720 847 814 956 1299 1870 1867 1832 1862 1787 1676
47 1794 2457 2429 2279 2216 2246 2075 1777 2050 1916 2195 2067 2021 1982 2022 1926 1722 1756 1951 1999 1870 1937 1904 1517 1124 1113 1095 1109 1056 1017 907 671 65 536 976 1270 1763 1967 1974 1657 1550 1703
8 411 1762 2435 2350 2284 2059 2060 1789 1557 2100 2004 2217 2082 2016 1873 1863 1814 1705 1767 1971 1894 1893 1729 1454 1134 1023 989 996 1034 1024 821 536 453 433 603 1258 1813 2114 1976 1641 1425 1366
0 144 308 619 754 425 479 1356 1532 1750 1505 1608 1827 1823 2036 1859 2202 1886 1783 1691 1738 1955 1864 1850 1577 1154 1038 966 875 861 894 850 719 693 583 486 1107 1838 2213 2137 1781 1724 1379
0 0 9 4 49 141 119 552 899 918 1011 1365 1318 1246 1382 1741 1725 1548 1960 1766 1542 1856 1638 1677 1744 1325 1025 959 788 673 683 684 662 676 675 655 729 1989 2376 1985 1832 1850 1434
0 0 5 0 0 4 50 372 464 267 238 332 947 1112 1269 1550 1277 1484 1673 1798 1601 2206 2151 1518 1400 1424 1153 880 793 650 570 543 521 471 560 643 681 1280 2211 2099 1878 1607 1577
0 0 0 0 0 0 0 0 0 0 0 0 58 394 727 753 865 1117 1173 1241 1405 1673 1614 1386 1420 1307 1481 1211 734 688 572 458 471 407 383 631 620 788 1397 1960 2068 1894 1609
0 0 0 0 0 0 0 0 0 0 0 0 0 0 0 0 38 543 687 649 859 1140 1229 1200 1227 1275 1096 1306 1190 704 656 503 392 401 301 670 728 626 796 1127 1855 1846 1910
0 0 0 0 0 0 0 0 0 0 0 0 0 0 0 0 0 0 13 19 80 435 880 1008 1002 1249 1221 832 1210 919 672 608 497 380 307 241 567 625 621 865 1318 1671 1708
0 0 0 0 0 0 0 0 0 0 0 0 0 0 0 0 0 0 0 0 30 6 19 208 811 836 1075 893 743 1138 560 623 578 554 415 234 388 577 543 743 761 1025 1465
0 0 0 0 0 0 0 0 0 0 0 0 0 0 0 0 0 0 1 0 0 0 0 0 67 425 624 750 700 642 524 511 531 506 690 438 354 604 550 633 721 761 1194
0 0 0 0 0 0 0 0 0 0 0 0 0 0 0 0 0 0 0 0 0 0 0 2 0 137 89 375 416 408 373 325 396 555 368 768 545 580 573 611 618 616 801
0 0 0 0 0 0 0 0 0 0 0 0 0 0 0 0 0 0 0 0 0 0 0 0 8 3 4 102 439 320 335 383 314 570 535 405 803 517 642 623 575 511 539
0 0 0 0 0 0 0 0 0 0 0 0 0 0 0 0 0 0 0 0 0 0 0 0 32 25 1 70 99 367 156 157 468 477 625 399 707 666 677 716 689 675 668
0 0 0 0 0 0 0 0 0 0 0 0 0 0 0 0 0 0 0 0 0 0 0 0 0 141 91 1 138 228 367 82 147 184 483 563 481 740 810 827 815 854 830
0 0 0 0 0 0 0 0 0 0 0 0 0 0 0 0 0 0 0 0 0 0 0 0 0 16 65 2 8 59 94 25 50 186 97 329 456 526 679 837 797 931 980
0 0 0 0 0 0 0 0 0 0 0 0 0 0 0 0 0 0 0 0 0 0 0 0 11 1 28 0 1 1 21 29 49 131 106 35 221 370 517 507 564 707 922
CIN
-361 -359 -300 -237 -255 -254 -247 -241 -206 -175 -191 -167 -132 -111 -99 -84 -57 -35 -10 -0 -1 -0 -15 -7 -6 -17 -32 -33 -15 -9 -5 -6 -2 -0 -0 -0 -0 -0 -0 -0 -0 -0 -0
-278 -347 -286 -242 -240 -248 -273 -281 -213 -137 -130 -151 -127 -105 -92 -76 -52 -24 -3 -0 -1 -0 -10 -10 -15 -30 -31 -34 -30 -5 -7 -9 -4 -2 -0 -0 -0 -0 -0 -0 -0 -0 -0
-390 -337 -284 -248 -234 -225 -225 -245 -217 -134 -88 -111 -131 -106 -81 -62 -44 -24 -7 -0 -1 -0 -9 -9 -15 -27 -27 -27 -21 -5 -6 -5 -6 -2 -1 -1 -3 -0 -0 -1 -0 -0 -0
-231 -334 -272 -236 -231 -207 -209 -207 -187 -129 -100 -89 -98 -95 -75 -58 -46 -31 -23 -12 -0 -0 -1 -7 -12 -25 -21 -37 -18 -11 -4 -6 -4 -7 -4 -2 -1 -0 -1 -4 -0 -0 -0
-198 -292 -251 -201 -187 -190 -193 -182 -158 -129 -140 -120 -93 -73 -56 -46 -39 -29 -24 -13 -0 -0 -0 -0 -3 -11 -45 -58 -39 -25 -15 -12 -8 -13 -15 -10 -14 -0 -1 -0 -2 -0 -0
-52 -38 -43 -171 -152 -149 -147 -140 -138 -146 -155 -145 -99 -72 -48 -31 -20 -19 -24 -9 -0 -0 -0 -0 -0 -20 -66 -70 -55 -33 -33 -48 -28 -31 -16 -12 -10 -0 -0 -0 -3 -8 -1
-29 -19 -26 -20 -75 -106 -85 -70 -82 -101 -135 -135 -106 -68 -50 -35 -27 -39 -38 -7 -0 -0 -0 -0 -0 -37 -69 -73 -68 -53 -36 -26 -51 -57 -29 -14 -8 -1 -0 -1 -4 -5 -3
-16 -8 -10 -13 -16 -93 -77 -77 -72 -72 -98 -109 -96 -67 -34 -34 -48 -66 -48 -14 -4 -1 -1 -1 -25 -49 -71 -70 -85 -69 -36 -38 -25 -52 -52 -40 -19 -3 -3 -7 -10 -16 -19
-41 -25 -12 -17 -14 -25 -46 -44 -66 -62 -68 -78 -79 -63 -33 -40 -57 -71 -41 -20 -27 -17 -1 -6 -43 -67 -65 -63 -85 -75 -55 -47 -43 -36 -58 -69 -30 -0 -1 -7 -5 -10 -2
-133 -51 -20 -14 -10 -4 -2 -25 -27 -42 -42 -38 -34 -32 -32 -15 -27 -43 -37 -15 -22 -28 -9 -11 -44 -75 -65 -61 -74 -76 -60 -36 -62 -59 -63 -62 -40 -1 -0 -4 -2 -2 -0
-435 -85 -26 -13 -13 -10 -5 -3 -21 -3 -21 -9 -15 -13 -9 -5 -3 -11 -20 -25 -18 -18 -14 -15 -39 -86 -80 -69 -56 -51 -54 -62 -73 -174 -71 -53 -43 -1 -0 -3 -8 -9 -1
-67 -162 -32 -2 -0 -0 -1 -0 -2 -8 -0 -0 -0 -2 -1 -2 -0 -0 -5 -10 -14 -12 -2 -8 -22 -56 -79 -86 -65 -38 -52 -73 -120 -143 -95 -73 -41 -1 -0 -2 -8 -13 -18
-0 -205 -100 -74 -70 -135 -137 -24 -17 -0 -5 -7 -0 -0 -0 -0 -0 -0 -1 -7 -3 -1 -0 -0 -0 -22 -63 -91 -97 -68 -57 -62 -88 -94 -95 -92 -53 -2 -0 -1 -5 -6 -18
-0 -0 -297 -334 -264 -208 -210 -62 -35 -29 -23 -20 -2 -6 -0 -0 -0 -11 -0 -1 -4 -0 -8 -1 -0 -0 -27 -68 -102 -114 -88 -75 -96 -81 -64 -78 -127 -2 -0 -0 -0 -1 -14
-0 -0 -158 -0 -0 -173 -271 -94 -38 -56 -53 -50 -36 -28 -2 -0 -0 -0 -0 -0 -8 -0 -0 -8 -9 -0 -4 -37 -78 -104 -113 -104 -91 -116 -48 -60 -69 -55 -1 -0 -1 -1 -5
-0 -0 -0 -0 -0 -0 -0 -0 -0 -0 -0 -0 -17 -33 -30 -2 -7 -2 -0 -2 -0 -0 -12 -22 -17 -10 -4 -6 -53 -72 -109 -133 -105 -108 -116 -61 -61 -72 -37 -5 -3 -1 -1
-0 -0 -0 -0 -0 -0 -0 -0 -0 -0 -0 -0 -0 -0 -0 -0 -81 -3 -1 -13 -1 -1 -0 -14 -10 -12 -12 -6 -9 -49 -60 -97 -135 -111 -133 -47 -47 -41 -70 -34 -6 -7 -0
-0 -0 -0 -0 -0 -0 -0 -0 -0 -0 -0 -0 -0 -0 -0 -0 -0 -0 -16 -11 -8 -0 -0 -6 -3 -0 -11 -28 -13 -40 -33 -51 -84 -108 -115 -94 -30 -42 -46 -60 -20 -6 -2
-0 -0 -0 -0 -0 -0 -0 -0 -0 -0 -0 -0 -0 -0 -0 -0 -0 -0 -0 -0 -58 -1 -1 -0 -1 -0 -0 -4 -21 -16 -60 -37 -44 -73 -84 -121 -100 -32 -57 -59 -60 -32 -5
-0 -0 -0 -0 -0 -0 -0 -0 -0 -0 -0 -0 -0 -0 -0 -0 -0 -0 -0 -0 -0 -0 -0 -0 -2 -0 -0 -1 -0 -23 -47 -60 -50 -55 -37 -64 -91 -30 -38 -46 -36 -56 -26
-0 -0 -0 -0 -0 -0 -0 -0 -0 -0 -0 -0 -0 -0 -0 -0 -0 -0 -0 -0 -0 -0 -0 -0 -0 -45 -59 -1 -1 -20 -25 -74 -50 -40 -56 -21 -33 -29 -32 -50 -33 -54 -50
-0 -0 -0 -0 -0 -0 -0 -0 -0 -0 -0 -0 -0 -0 -0 -0 -0 -0 -0 -0 -0 -0 -0 -0 -55 -3 -40 -44 -0 -1 -8 -20 -75 -29 -29 -44 -14 -27 -16 -26 -27 -55 -68
-0 -0 -0 -0 -0 -0 -0 -0 -0 -0 -0 -0 -0 -0 -0 -0 -0 -0 -0 -0 -0 -0 -0 -0 -15 -4 -26 -42 -6 -1 -6 -5 -37 -53 -39 -65 -12 -6 -10 -7 -15 -18 -16
-0 -0 -0 -0 -0 -0 -0 -0 -0 -0 -0 -0 -0 -0 -0 -0 -0 -0 -0 -0 -0 -0 -0 -0 -0 -1 -1 -0 -33 -167 -1 -11 -27 -45 -55 -52 -68 -14 -20 -13 -9 -6 -3
-0 -0 -0 -0 -0 -0 -0 -0 -0 -0 -0 -0 -0 -0 -0 -0 -0 -0 -0 -0 -0 -0 -0 -0 -0 -3 -1 -3 -3 -6 -18 -3 -0 -20 -34 -38 -43 -45 -41 -19 -31 -22 -4
-0 -0 -0 -0 -0 -0 -0 -0 -0 -0 -0 -0 -0 -0 -0 -0 -0 -0 -0 -0 -0 -0 -0 -0 -0 -0 -4 -0 -0 -23 -29 -3 -9 -2 -22 -49 -48 -99 -87 -56 -49 -45 -37
Wind_Speed
24 30 34 31 33 32 28 23 17 17 25 29 29 31 32 33 32 31 30 30 28 30 30 30 28 26 26 27 26 26 27 28 29 32 34 34 33 33 34 31 29 23 20
26 30 29 30 31 33 34 32 24 19 20 27 30 30 32 33 33 32 31 31 31 33 31 29 29 28 28 27 28 29 30 30 29 29 31 32 30 32 28 26 25 24 20
28 28 28 28 31 32 32 34 33 28 23 22 28 30 32 32 34 33 33 31 31 32 31 29 26 26 28 27 29 30 30 32 32 31 30 20 20 24 26 25 25 27 25
26 29 27 28 30 30 32 33 34 34 29 26 26 28 30 31 33 33 33 33 33 33 31 29 27 25 26 27 30 30 31 31 32 32 25 21 21 23 27 26 28 26 25
28 27 25 27 27 29 30 32 33 33 34 33 29 28 29 30 32 32 32 32 32 34 32 29 27 26 25 27 29 30 31 31 31 28 25 21 18 24 26 25 23 24 23
28 27 26 27 28 29 28 29 31 33 33 34 33 34 31 31 31 32 31 32 32 32 30 28 27 24 24 25 27 29 29 30 31 26 24 22 18 25 25 23 19 22 22
32 27 27 27 29 30 29 26 26 27 29 32 33 33 34 33 32 32 32 32 32 33 32 29 26 24 23 23 24 26 28 28 26 25 24 20 14 24 24 22 19 20 23
33 31 30 28 28 29 30 31 27 25 26 28 30 32 32 32 32 32 31 32 33 32 31 32 27 25 22 23 23 24 26 27 25 24 22 20 15 21 23 21 21 20 21
39 34 32 32 30 31 28 30 29 27 26 27 28 30 30 31 31 31 30 31 32 32 32 32 30 25 22 22 21 22 23 26 24 22 20 16 15 18 19 20 19 21 23
31 32 30 31 30 29 28 26 26 29 30 29 30 30 31 31 32 32 33 31 31 28 31 31 29 26 23 21 19 20 22 22 21 19 17 15 14 17 18 20 19 21 25
nan 35 34 33 31 32 35 31 28 26 25 33 33 32 35 36 34 33 34 35 33 29 27 28 27 26 24 22 21 18 19 20 23 nan 17 16 15 16 18 17 18 23 26
nan 39 38 40 38 35 33 33 35 33 32 29 31 35 37 38 39 37 34 34 34 32 28 28 27 24 23 23 23 23 20 21 21 21 18 15 14 14 18 20 22 21 24
nan 39 40 38 39 39 36 31 34 33 35 36 33 33 36 39 42 42 41 39 37 36 32 31 31 27 25 23 24 26 22 21 21 22 20 14 14 14 17 24 25 25 22
nan nan nan nan nan 37 35 36 37 37 36 37 39 39 42 40 41 43 42 41 41 39 34 34 35 33 27 23 23 25 25 24 22 24 20 18 15 18 16 20 24 23 22
nan nan nan nan nan nan nan 38 37 41 40 40 41 45 45 43 43 43 44 46 46 44 42 40 38 36 31 25 23 22 23 26 23 23 24 19 18 18 14 15 21 23 22
nan nan nan nan nan nan nan nan nan nan nan nan nan 48 46 43 45 46 48 48 46 48 50 47 44 43 38 32 25 21 21 24 27 23 23 22 18 18 17 13 14 19 21
nan nan nan nan nan nan nan nan nan nan nan nan nan nan nan nan nan 49 49 51 45 44 43 53 54 51 47 38 29 25 24 21 24 24 23 21 19 15 18 18 13 14 18
nan nan nan nan nan nan nan nan nan nan nan nan nan nan nan nan nan nan nan nan nan 48 49 52 59 61 48 43 35 31 30 29 23 25 25 22 21 23 19 17 20 18 16
nan nan nan nan nan nan nan nan nan nan nan nan nan nan nan nan nan nan nan nan nan nan nan 55 60 62 60 50 40 37 36 32 27 27 24 25 23 24 27 21 18 21 20
nan nan nan nan nan nan nan nan nan nan nan nan nan nan nan nan nan nan nan nan nan nan nan nan nan 59 59 55 50 43 43 37 35 26 26 28 27 23 26 23 24 20 22
nan nan nan nan nan nan nan nan nan nan nan nan nan nan nan nan nan nan nan nan nan nan nan nan nan 48 nan 53 55 54 49 46 38 31 31 28 28 24 26 26 25 26 22
nan nan nan nan nan nan nan nan nan nan nan nan nan nan nan nan nan nan nan nan nan nan nan nan nan nan nan 33 52 58 54 52 44 34 34 30 28 31 29 25 26 25 26
nan nan nan nan nan nan nan nan nan nan nan nan nan nan nan nan nan nan nan nan nan nan nan nan nan nan nan nan nan 57 54 44 52 43 34 34 33 33 29 29 26 26 24
nan nan nan nan nan nan nan nan nan nan nan nan nan nan nan nan nan nan nan nan nan nan nan nan nan 53 nan nan 45 42 51 nan 46 45 44 37 38 35 29 32 30 29 26
nan nan nan nan nan nan nan nan nan nan nan nan nan nan nan nan nan nan nan nan nan nan nan nan nan nan nan nan nan nan nan nan nan 52 nan 40 41 40 41 44 35 34 29
nan nan nan nan nan nan nan nan nan nan nan nan nan nan nan nan nan nan nan nan nan nan nan nan nan nan nan nan nan nan nan nan nan 39 39 nan 37 42 46 49 43 37 35
Wind_Direction
305 310 311 301 301 299 294 292 287 292 297 295 297 301 307 312 316 317 319 322 321 321 325 325 317 309 306 304 306 306 301 304 305 307 309 309 313 314 315 311 315 318 311
307 311 311 303 302 304 303 300 295 288 290 293 296 297 301 306 310 312 316 320 321 320 323 320 314 309 306 305 303 305 306 304 302 305 309 314 317 322 320 321 322 321 313
305 311 313 312 307 305 302 302 302 297 293 291 291 295 297 304 307 313 317 319 321 321 321 319 311 307 306 304 301 303 303 302 305 308 310 306 317 328 330 330 326 326 318
295 303 306 311 310 305 301 300 301 301 298 295 290 292 299 305 308 313 316 319 321 324 326 320 314 310 306 306 302 302 300 303 305 303 298 311 315 319 324 326 324 326 319
288 295 297 301 300 305 305 302 299 299 301 299 296 295 298 303 307 310 313 314 318 322 324 322 319 313 308 305 303 304 304 302 300 298 299 301 305 319 325 329 332 329 316
275 277 283 293 300 306 304 302 301 300 299 298 297 298 299 303 306 307 310 310 314 315 317 319 317 316 313 305 305 305 303 300 301 297 297 303 303 319 327 323 327 335 327
272 276 286 291 292 295 292 289 292 292 291 293 295 296 299 302 305 304 304 304 308 310 311 312 313 313 311 302 303 305 304 304 299 300 304 302 302 319 325 330 323 330 327
264 265 269 273 275 283 291 295 292 290 289 289 289 290 293 295 299 300 301 302 304 306 308 309 313 311 311 304 304 301 304 305 302 300 303 303 308 319 325 330 324 335 326
260 263 266 269 271 272 276 282 287 288 293 290 286 285 286 290 290 292 294 296 299 305 306 308 310 310 306 302 304 303 308 304 302 299 299 297 313 316 322 326 329 328 328
255 264 264 266 268 272 274 268 272 282 282 280 282 279 279 276 278 283 286 288 291 296 302 305 306 306 300 299 298 299 304 300 303 308 299 291 307 319 321 328 324 324 323
nan 251 256 260 266 268 268 264 260 265 274 280 278 276 276 274 274 276 281 286 289 290 294 298 300 301 299 293 289 287 294 287 291 nan 297 307 312 324 324 317 320 322 325
nan 247 249 251 250 258 264 264 268 264 262 264 271 273 273 275 274 274 274 278 284 284 281 282 285 288 284 277 274 281 273 279 282 286 280 302 315 326 321 316 319 322 329
nan 254 248 248 247 249 254 260 262 268 264 260 254 258 268 272 269 268 268 269 269 273 270 270 273 272 274 271 274 274 271 269 273 277 282 299 311 326 325 319 320 321 327
nan nan nan nan nan 241 254 256 257 255 261 260 260 262 258 260 269 270 268 271 272 270 268 268 266 266 265 263 269 276 274 269 269 269 274 301 310 322 336 324 320 321 325
nan nan nan nan nan nan nan 256 251 249 253 256 255 256 253 252 257 265 269 268 267 268 267 262 260 260 260 259 255 262 266 270 267 269 268 291 303 311 322 336 331 319 317
nan nan nan nan nan nan nan nan nan nan nan nan nan 258 254 255 250 252 258 266 273 266 267 266 263 259 255 251 251 251 258 261 269 268 269 270 293 305 310 330 335 326 316
nan nan nan nan nan nan nan nan nan nan nan nan nan nan nan nan nan 254 253 259 263 266 273 270 260 253 253 247 245 249 248 250 260 267 265 271 270 295 304 300 300 321 320
nan nan nan nan nan nan nan nan nan nan nan nan nan nan nan nan nan nan nan nan nan 255 263 266 270 260 245 249 241 244 248 245 244 257 258 261 268 273 285 304 306 307 318
nan nan nan nan nan nan nan nan nan nan nan nan nan nan nan nan nan nan nan nan nan nan nan 237 248 269 250 241 241 237 247 245 243 247 259 260 260 268 277 290 298 306 304
nan nan nan nan nan nan nan nan nan nan nan nan nan nan nan nan nan nan nan nan nan nan nan nan nan 252 278 246 236 235 240 241 241 240 251 258 263 266 272 279 280 280 308
nan nan nan nan nan nan nan nan nan nan nan nan nan nan nan nan nan nan nan nan nan nan nan nan nan 268 nan 258 240 235 234 239 240 237 241 252 263 268 269 271 269 275 277
nan nan nan nan nan nan nan nan nan nan nan nan nan nan nan nan nan nan nan nan nan nan nan nan nan nan nan 253 249 238 238 235 234 233 243 248 254 256 263 269 271 276 284
nan nan nan nan nan nan nan nan nan nan nan nan nan nan nan nan nan nan nan nan nan nan nan nan nan nan nan nan nan 238 233 243 238 231 239 243 249 252 252 260 269 273 281
nan nan nan nan nan nan nan nan nan nan nan nan nan nan nan nan nan nan nan nan nan nan nan nan nan 249 nan nan 267 245 235 nan 237 241 230 241 251 255 257 257 259 266 270
nan nan nan nan nan nan nan nan nan nan nan nan nan nan nan nan nan nan nan nan nan nan nan nan nan nan nan nan nan nan nan nan nan 234 nan 247 250 253 256 255 261 256 264
nan nan nan nan nan nan nan nan nan nan nan nan nan nan nan nan nan nan nan nan nan nan nan nan nan nan nan nan nan nan nan nan nan 231 239 nan 258 257 261 259 248 249 254